sat.trackr.live / text

‹ back to catalog

STARLINK-4416

NORAD 53212 · 2022-084Z

PAYLOAD ACTIVE UNKNOWN

§ Identity

Operator
Country
US
Launch date
2022-07-22
Launch site
AFWTR
Launch vehicle
Mass (kg)
RCS (m²)

Purposes: comms

External: N2YO · Heavens-Above · Gunter

§ Orbital elements

Epoch: 2026-05-25T03:16:51.299040Z

Period
95.64 min
Inclination
97.4497°
Eccentricity
0.0001944
Mean motion
15.05669701 rev/d
Perigee alt
548.1 km
Apogee alt
550.8 km
Semi-major
6,927.6 km
B*
-1.4528e-4
RAAN
206.1987°
Arg perigee
110.3403°
Mean anomaly
249.8033°
Rev number
21,087

§ Raw data

STARLINK-44161 53212U 22084Z   26145.13670485 -.00002155  00000+0 -14528-3 0  99982 53212  97.4497 206.1987 0001944 110.3403 249.8033 15.05669701210875

JSON: /api/v1/satellites/53212 · /tle

For live sub-satellite position, see the globe view (requires WebGL).

§ Visibility from observer

Set your observer location to see the next 7 days of passes ≥ 10°. The values pass through the URL so the page stays shareable.

No JS? Fill the form by hand. The geolocation button needs JavaScript.